Weather History for KVOK - January, 2014

Change the Weather History Date:

Thursday, January 9, 2014

  Actual Average Record
Temperature  
Mean Temperature -2 °F -  
Max Temperature 19 °F 22 °F 5 °F (2015)
Min Temperature -23 °F 12 °F 0 °F (2015)
Degree Days  
Heating Degree Days 67    
Moisture  
Dew Point -6 °F    
Average Humidity 71    
Maximum Humidity 93    
Minimum Humidity 49    
Precipitation  
Precipitation 0.00 in - - ()
Snow  
Snow 0.00 in - - ()
Snow Depth 7.00 in    
Sea Level Pressure  
Sea Level Pressure 30.34 in    
Wind  
Wind Speed 3 mph (SE)    
Max Wind Speed 9 mph    
Max Gust Speed -    
Visibility 10 miles    
Events      
Averages and records for this station are not official NWS values.
T = Trace of Precipitation, MM = Missing Value Source: NWS Daily Summary

Daily Weather History Graph

Daily Weather History Graph

Search for Another Location

Airport or City:

Trip Planner

Search our weather history database for the weather conditions in past years. The results will help you decide how hot, cold, wet, or windy it might be!

Date:

Astronomy

Jan. 09, 2014 Rise Set
Actual Time 7:34 AM CST 4:42 PM CST
Civil Twilight 7:02 AM CST 5:14 PM CST
Nautical Twilight 6:26 AM CST 5:50 PM CST
Astronomical Twilight 5:51 AM CST 6:25 PM CST
Moon 12:13 PM CST (1/9) 1:37 AM CST (1/9)
Length of Visible Light 10h 12m
Length of Day
9h 07m
Waxing Gibbous, 66% of the Moon is Illuminated
Jan 9
Waxing Gibbous
Jan 15
Full
Jan 23
Last Quarter
Jan 30
New
Feb 6
First Quarter

Hourly Weather History & Observations

Time (CST) Temp. Windchill Dew Point Humidity Pressure Visibility Wind Dir Wind Speed Gust Speed Precip Events Conditions
12:58 AM -19.3 °F - -24.0 °F 79% 30.55 in 10.0 mi Calm Calm - -   Clear
1:58 AM -20.6 °F - -25.6 °F 78% 30.56 in 10.0 mi Calm Calm - -   Clear
2:58 AM -22.9 °F -36.6 °F -28.5 °F 75% 30.55 in 10.0 mi ESE 4.6 mph - -   Clear
3:58 AM -22.5 °F - -27.9 °F 76% 30.53 in 10.0 mi Calm Calm - -   Clear
4:58 AM -21.8 °F - -27.4 °F 75% 30.53 in 10.0 mi East 2.3 mph - -   Clear
5:58 AM -21.8 °F - -27.4 °F 75% 30.52 in 10.0 mi Calm Calm - -   Clear
6:58 AM -23.6 °F -37.5 °F -29.4 °F 74% 30.51 in 10.0 mi SE 4.6 mph - -   Clear
7:58 AM -20.2 °F - -25.6 °F 76% 30.49 in 10.0 mi Calm Calm - N/A   Scattered Clouds
8:58 AM -14.8 °F - -20.2 °F 77% 30.49 in 10.0 mi NE 1.2 mph - N/A   Scattered Clouds
9:58 AM -4.0 °F - -9.4 °F 78% 30.46 in 10.0 mi Calm Calm - N/A   Mostly Cloudy
10:58 AM 6.8 °F - -4.0 °F 61% 30.43 in 10.0 mi Calm Calm - N/A   Scattered Clouds
11:58 AM 10.4 °F - -4.0 °F 52% 30.37 in 10.0 mi Calm Calm - N/A   Partly Cloudy
12:58 PM 14.0 °F 3.9 °F -2.2 °F 49% 30.33 in 10.0 mi SSE 6.9 mph - N/A   Scattered Clouds
1:03 PM 14.0 °F 5.1 °F -0.4 °F 53% 30.24 in 10.0 mi SSE 5.8 mph - N/A   Mostly Cloudy
1:58 PM 15.8 °F 4.2 °F 1.4 °F 53% 30.31 in 10.0 mi SE 9.2 mph - N/A   Overcast
2:58 PM 15.8 °F 4.2 °F 1.4 °F 53% 30.30 in 10.0 mi SE 9.2 mph - N/A   Overcast
3:38 PM 15.8 °F 6.1 °F 1.4 °F 53% 30.19 in 10.0 mi ESE 6.9 mph - N/A   Scattered Clouds
3:58 PM 15.8 °F 5.1 °F 1.4 °F 53% 30.28 in 10.0 mi ESE 8.1 mph - N/A   Scattered Clouds
5:58 PM 15.8 °F 6.1 °F 5.0 °F 62% 30.23 in 10.0 mi ESE 6.9 mph - N/A   Overcast
6:58 PM 16.7 °F 7.2 °F 7.9 °F 68% 30.21 in 10.0 mi ESE 6.9 mph - -   Overcast
7:58 PM 15.8 °F 7.2 °F 8.6 °F 73% 30.21 in 10.0 mi ESE 5.8 mph - N/A   Overcast
8:58 PM 17.6 °F 7.3 °F 12.2 °F 79% 30.18 in 10.0 mi SE 8.1 mph - N/A   Overcast
9:58 PM 17.6 °F 8.2 °F 15.8 °F 93% 30.16 in 10.0 mi SE 6.9 mph - N/A   Overcast
10:58 PM 19.4 °F 14.3 °F 15.8 °F 86% 30.14 in 10.0 mi SSE 3.5 mph - N/A   Overcast
11:52 PM 19.4 °F 10.4 °F 17.6 °F 93% 30.04 in 10.0 mi SSE 6.9 mph - N/A   Overcast
11:58 PM 19.6 °F 11.7 °F 17.6 °F 92% 30.09 in 10.0 mi SSE 5.8 mph - -   Overcast